This is the latest recevied weather packets stored in our database for station/object BM1CCR-13. If no packets are shown the sender has not sent any weather packets the latest 10 day(s).
| Time | Temp. | Humidity | Pressure | Rain* | Wind** | Luminosity | Snow |
|---|---|---|---|---|---|---|---|
| 1777213617 | 20.56° C | 72% | 1002.6 hPa | 0 mm | - | - | - |
| 1777213340 | 20.56° C | 71% | 1002.6 hPa | 0 mm | - | - | - |
| 1777213317 | 20.56° C | 71% | 1002.7 hPa | 0 mm | - | - | - |
| 1777213017 | 20.56° C | 71% | 1002.7 hPa | 0 mm | - | - | - |
| 1777212717 | 21.67° C | 70% | 1002.8 hPa | 0 mm | - | - | - |
| 1777212417 | 21.67° C | 70% | 1002.9 hPa | 0 mm | - | - | - |
| 1777212137 | 21.67° C | 70% | 1002.8 hPa | 0 mm | - | - | - |
| 1777212118 | 21.67° C | 70% | 1002.7 hPa | 0 mm | - | - | - |
| 1777211837 | 21.67° C | 72% | 1003 hPa | 0 mm | - | - | - |
| 1777211817 | 21.67° C | 71% | 1002.9 hPa | 0 mm | - | - | - |
| 1777211538 | 21.67° C | 68% | 1003.1 hPa | 0 mm | - | - | - |
| 1777211516 | 21.67° C | 68% | 1003 hPa | 0 mm | - | - | - |
| 1777211237 | 21.67° C | 70% | 1003 hPa | 0 mm | - | - | - |
| 1777211217 | 21.67° C | 70% | 1003.1 hPa | 0 mm | - | - | - |
| 1777210917 | 21.67° C | 71% | 1003.1 hPa | 0 mm | - | - | - |
| 1777210617 | 21.67° C | 74% | 1003.1 hPa | 0 mm | - | - | - |
| 1777210337 | 20.56° C | 75% | 1003 hPa | 0 mm | - | - | - |
| 1777210317 | 20.56° C | 76% | 1003 hPa | 0 mm | - | - | - |
| 1777210038 | 20.56° C | 78% | 1002.9 hPa | 0 mm | - | - | - |
| 1777210017 | 20.56° C | 78% | 1003 hPa | 0 mm | - | - | - |
| 1777209717 | 20° C | 79% | 1003.1 hPa | 0 mm | - | - | - |
| 1777209417 | 20° C | 79% | 1003.1 hPa | 0 mm | - | - | - |
| 1777209116 | 20° C | 79% | 1003.1 hPa | 0 mm | - | - | - |
| 1777208815 | 20° C | 80% | 1002.9 hPa | 0 mm | - | - | - |
| 1777208537 | 20° C | 79% | 1003 hPa | 0 mm | - | - | - |
* Rain latest hour (hover to see other rain measurements)
** Current wind speed in m/s (hover to see current wind gust speed)